EW5752 Weather Reports


time (UTC)temp
F
wind
direction
speed
knots
gust
knots
rain 1hr
in
rain 24hr
in
rain mn
in
humidity
%
barometer
mb
20260507092044 51 131 0.0 0.0 0.00 0.00 0.00 69 1011.4
20260507091506 51 131 0.0 0.0 0.00 0.00 0.00 66 1011.4
20260507091035 52 131 0.0 0.9 0.00 0.00 0.00 63 1011.3
20260507090051 52 120 0.0 3.5 0.00 0.00 0.00 63 1011.3
20260507090006 52 123 0.0 0.0 0.00 0.00 0.00 63 1011.4
20260507085106 53 175 0.0 0.0 0.00 0.00 0.00 63 1011.0
20260507084632 52 174 0.0 0.0 0.00 0.00 0.00 63 1011.1
20260507084051 53 254 0.0 0.0 0.00 0.00 0.00 62 1010.9
20260507083104 53 254 0.9 0.0 0.00 0.00 0.00 64 1010.9
20260507083017 54 256 0.0 0.0 0.00 0.00 0.00 62 1010.9
20260507082015 54 182 0.0 5.2 0.00 0.00 0.00 63 1010.6
20260507081502 53 162 0.9 0.0 0.00 0.00 0.00 61 1010.7
20260507081025 54 349 0.0 5.2 0.00 0.00 0.00 61 1010.5
20260507080030 53 185 0.0 0.9 0.00 0.00 0.00 61 1010.5
20260507080008 53 185 0.0 0.0 0.00 0.00 0.00 61 1010.6
20260507074604 54 191 0.9 0.0 0.00 0.00 0.00 60 1010.5
20260507073936 55 182 0.0 4.3 0.00 0.00 0.00 60 1010.4
20260507073008 54 241 0.9 0.0 0.00 0.00 0.00 59 1010.5
20260507072938 55 254 0.0 4.3 0.00 0.00 0.00 59 1010.4
20260507071914 55 113 0.0 2.6 0.00 0.00 0.00 59 1010.3
20260507070916 55 112 0.9 6.1 0.00 0.00 0.00 58 1010.1
20260507070008 55 150 0.9 0.0 0.00 0.00 0.00 59 1010.2
20260507065933 55 150 0.0 4.3 0.00 0.00 0.00 58 1010.1
20260507064926 56 165 1.7 6.1 0.00 0.00 0.00 57 1009.8
20260507064506 55 217 3.5 0.0 0.00 0.00 0.00 57 1009.9
20260507063921 56 219 2.6 7.8 0.00 0.00 0.00 56 1009.7
20260507063008 56 209 4.3 0.0 0.00 0.00 0.00 56 1009.8
20260507062913 57 237 3.5 8.7 0.00 0.00 0.00 55 1009.7
20260507061925 57 208 2.6 8.7 0.00 0.00 0.00 55 1009.9
20260507061507 57 184 2.6 0.0 0.00 0.00 0.00 54 1009.9
20260507060934 57 152 1.7 8.7 0.00 0.00 0.00 55 1009.9
20260507060004 57 196 1.7 0.0 0.00 0.00 0.00 55 1010.0
20260507055906 58 198 0.9 8.7 0.00 0.00 0.00 55 1009.9
20260507054925 58 220 0.0 4.3 0.00 0.00 0.00 53 1009.9
20260507054503 58 56 0.9 0.0 0.00 0.00 0.00 52 1010.0
20260507053911 59 178 0.0 2.6 0.00 0.00 0.00 50 1009.6
20260507053009 59 243 1.7 0.0 0.00 0.00 0.00 48 1009.6
20260507052927 59 199 0.9 3.5 0.00 0.00 0.00 48 1009.6
20260507051503 59 164 3.5 0.0 0.00 0.00 0.00 50 1009.6
20260507050723 59 248 1.7 8.7 0.00 0.00 0.00 51 1010.1
20260507050010 59 167 2.6 0.0 0.00 0.00 0.00 52 1010.2
20260507045729 59 188 0.9 6.1 0.00 0.00 0.00 52 1010.3
20260507044702 59 320 0.0 0.0 0.00 0.00 0.00 55 1010.3
20260507044507 58 291 0.9 0.0 0.00 0.00 0.00 53 1010.4
20260507043633 59 157 0.0 4.3 0.00 0.00 0.00 52 1010.4
20260507043009 58 133 0.9 0.0 0.00 0.00 0.00 55 1010.5
20260507042630 58 133 0.0 1.7 0.00 0.00 0.00 58 1010.5
20260507041604 58 224 0.0 0.0 0.00 0.00 0.00 57 1010.5
20260507040545 59 224 0.0 0.0 0.00 0.00 0.00 56 1010.6
20260507040002 59 224 0.9 0.0 0.00 0.00 0.00 57 1010.7
20260507034516 59 178 0.9 0.0 0.00 0.00 0.00 54 1010.6
20260507034429 60 178 0.0 0.9 0.00 0.00 0.00 55 1010.5
20260507033443 61 224 0.0 4.3 0.00 0.00 0.00 53 1010.2
20260507033103 61 208 1.7 0.0 0.00 0.00 0.00 53 1010.3
20260507031509 62 0 0.0 0.0 0.00 0.00 0.00 48 1010.0
20260507031325 63 0 0.0 0.9 0.00 0.00 0.00 48 1010.2
20260507030004 63 52 0.0 0.0 0.00 0.00 0.00 46 1010.2
20260507025111 64 78 0.0 0.0 0.00 0.00 0.00 47 1010.1
20260507024504 64 234 0.9 0.0 0.00 0.00 0.00 44 1010.2
20260507024125 65 289 0.0 4.3 0.00 0.00 0.00 43 1010.1
20260507023149 66 330 0.0 0.0 0.00 0.00 0.00 42 1010.1
20260507022136 68 202 0.0 6.1 0.00 0.00 0.00 40 1009.8
20260507021604 68 346 1.7 0.0 0.00 0.00 0.00 38 1009.9
20260507020006 69 268 2.6 0.0 0.00 0.00 0.00 37 1010.0
20260507015955 69 268 1.7 7.8 0.00 0.00 0.00 37 1010.0
20260507014924 70 233 1.7 7.8 0.00 0.00 0.00 37 1010.0
20260507014507 70 230 2.6 0.0 0.00 0.00 0.00 37 1010.1
20260507013942 70 287 1.7 9.6 0.00 0.00 0.00 41 1010.0
20260507013004 70 213 3.5 0.0 0.00 0.00 0.00 40 1010.0
20260507012912 70 210 3.5 9.6 0.00 0.00 0.00 38 1009.9
20260507011853 71 289 2.6 8.7 0.00 0.00 0.00 38 1009.9
20260507011506 71 253 3.5 0.0 0.00 0.00 0.00 39 1009.9
20260507010833 71 240 3.5 10.4 0.00 0.00 0.00 37 1009.6
20260507010112 72 234 3.5 0.0 0.00 0.00 0.00 37 1009.7
20260507004503 73 171 2.6 0.0 0.00 0.00 0.00 37 1009.2
20260507003525 74 233 1.7 6.1 0.00 0.00 0.00 35 1008.9
20260507003106 73 296 1.7 0.0 0.00 0.00 0.00 38 1009.0
20260507002518 74 237 0.9 6.1 0.00 0.00 0.00 38 1008.6
20260507001604 72 168 2.6 0.0 0.00 0.00 0.00 36 1008.7
20260507001525 73 206 1.7 5.2 0.00 0.00 0.00 35 1008.6
20260507000542 71 154 0.9 5.2 0.00 0.00 0.00 38 1008.8
20260507000007 70 167 1.7 0.0 0.00 0.00 0.00 36 1008.8
20260506235550 71 254 0.9 8.7 0.00 0.00 0.00 39 1008.6
20260506234543 71 251 0.9 8.7 0.00 0.00 0.00 37 1008.6
20260506234503 71 251 1.7 0.0 0.00 0.00 0.00 37 1008.7
20260506233604 71 168 1.7 7.0 0.00 0.00 0.00 38 1008.7
20260506233034 71 181 2.6 0.0 0.00 0.00 0.00 37 1008.8
20260506232621 71 256 1.7 7.0 0.00 0.00 0.00 36 1008.8
20260506231625 72 229 0.9 6.1 0.00 0.00 0.00 37 1008.8
20260506230602 72 167 0.9 6.1 0.00 0.00 0.00 37 1008.6
20260506225543 72 209 0.9 6.1 0.00 0.00 0.00 37 1008.5
20260506224606 72 212 1.7 0.0 0.00 0.00 0.00 36 1008.5
20260506224557 73 212 0.9 8.7 0.00 0.00 0.00 36 1008.5
20260506223007 72 313 2.6 0.0 0.00 0.00 0.00 38 1008.7
20260506222418 73 263 1.7 7.8 0.00 0.00 0.00 38 1008.6
20260506221603 73 275 0.9 0.0 0.00 0.00 0.00 35 1008.7
20260506221442 73 298 0.0 5.2 0.00 0.00 0.00 35 1008.6
20260506220449 73 176 0.0 5.2 0.00 0.00 0.00 35 1008.6
20260506220015 73 305 0.9 0.0 0.00 0.00 0.00 36 1008.7
20260506214606 73 226 1.7 0.0 0.00 0.00 0.00 34 1008.7
20260506214317 73 189 0.0 2.6 0.00 0.00 0.00 33 1008.8
20260506213254 73 165 0.0 7.8 0.00 0.00 0.00 33 1008.8
20260506213003 73 261 0.9 0.0 0.00 0.00 0.00 34 1008.9
20260506212306 73 191 0.9 7.8 0.00 0.00 0.00 34 1008.8
20260506211317 73 210 2.6 6.1 0.00 0.00 0.00 33 1008.9
20260506210320 73 154 0.9 4.3 0.00 0.00 0.00 31 1008.9
20260506210012 73 275 1.7 0.0 0.00 0.00 0.00 31 1009.0
20260506205246 73 192 0.9 7.8 0.00 0.00 0.00 30 1009.0
20260506204632 73 184 1.7 0.0 0.00 0.00 0.00 31 1009.0
20260506203003 73 195 1.7 0.0 0.00 0.00 0.00 33 1009.0
20260506201506 73 148 1.7 0.0 0.00 0.00 0.00 31 1008.9
20260506200912 74 109 0.0 5.2 0.00 0.00 0.00 30 1008.8
20260506200012 73 208 1.7 0.0 0.00 0.00 0.00 31 1008.8
20260506195930 74 208 0.9 6.1 0.00 0.00 0.00 31 1008.8
20260506194952 74 256 1.7 6.1 0.00 0.00 0.00 32 1008.6
20260506194503 74 230 1.7 0.0 0.00 0.00 0.00 32 1008.6
20260506194012 75 219 0.9 5.2 0.00 0.00 0.00 30 1008.4
20260506193103 75 193 1.7 0.0 0.00 0.00 0.00 32 1008.5
20260506193014 75 192 0.9 7.0 0.00 0.00 0.00 33 1008.4
20260506191534 75 168 2.6 0.0 0.00 0.00 0.00 31 1008.5
20260506185734 76 239 0.9 8.7 0.00 0.00 0.00 35 1008.2
20260506184603 76 141 2.6 0.0 0.00 0.00 0.00 33 1008.3
20260506183601 76 232 1.7 8.7 0.00 0.00 0.00 37 1008.3
20260506183125 76 212 2.6 0.0 0.00 0.00 0.00 34 1008.4
20260506182555 76 234 0.9 8.7 0.00 0.00 0.00 38 1008.2
20260506181550 75 191 0.9 5.2 0.00 0.00 0.00 39 1008.2
20260506181507 75 223 1.7 0.0 0.00 0.00 0.00 40 1008.2
20260506180518 75 315 0.9 6.1 0.00 0.00 0.00 43 1007.9
20260506180009 74 265 1.7 0.0 0.00 0.00 0.00 44 1007.9
20260506175531 74 224 0.0 5.2 0.00 0.00 0.00 45 1008.1
20260506174525 73 223 0.0 1.7 0.00 0.00 0.00 49 1008.1
20260506174502 72 223 0.9 0.0 0.00 0.00 0.00 49 1008.2
20260506173526 72 223 0.0 1.7 0.00 0.00 0.00 50 1008.3
20260506173003 71 247 1.7 0.0 0.00 0.00 0.00 53 1008.4
20260506171505 69 73 0.0 0.0 0.00 0.00 0.00 57 1008.6
20260506171352 70 73 0.0 0.9 0.00 0.00 0.00 59 1008.5
20260506170401 69 73 0.0 0.0 0.00 0.00 0.00 61 1008.5
20260506170104 68 73 0.9 0.0 0.00 0.00 0.00 58 1008.6
20260506164603 66 76 0.9 0.0 0.00 0.00 0.00 62 1008.8
20260506164215 67 79 0.0 1.7 0.00 0.00 0.00 59 1009.0
20260506163515 66 79 0.0 0.9 0.00 0.00 0.00 67 1009.0
20260506163007 66 79 0.9 0.0 0.00 0.00 0.00 61 1009.1
20260506162540 66 79 0.0 3.5 0.00 0.00 0.00 62 1009.1
20260506161605 65 76 0.0 0.0 0.00 0.00 0.00 65 1009.1
20260506161544 65 76 0.0 0.0 0.00 0.00 0.00 65 1009.1
20260506160536 64 76 0.0 0.0 0.00 0.00 0.00 67 1009.5
20260506154604 60 76 0.0 0.0 0.00 0.00 0.00 71 1009.8
20260506154425 61 76 0.0 0.0 0.00 0.00 0.00 69 1009.7
20260506153008 58 76 0.0 0.0 0.00 0.00 0.00 75 1010.0
20260506152312 58 76 0.0 0.0 0.00 0.00 0.00 77 1010.2
20260506151507 56 76 0.0 0.0 0.00 0.00 0.00 79 1010.3
20260506151319 57 76 0.0 0.0 0.00 0.00 0.00 79 1010.3
20260506150330 56 76 0.0 0.0 0.00 0.00 0.00 81 1010.3
20260506150105 55 76 0.0 0.0 0.00 0.00 0.00 81 1010.3
20260506145353 56 76 0.0 0.0 0.00 0.00 0.00 79 1010.3
20260506144609 55 76 0.0 0.0 0.00 0.00 0.00 79 1010.4
20260506144404 55 76 0.0 1.7 0.00 0.00 0.00 78 1010.4
20260506143352 54 76 0.0 0.0 0.00 0.00 0.00 81 1010.4
20260506142401 54 76 0.0 0.0 0.00 0.00 0.00 80 1010.2
20260506141502 52 134 0.0 0.0 0.00 0.00 0.00 82 1010.3
20260506141402 53 136 0.0 0.0 0.00 0.00 0.00 82 1009.9
20260506140403 53 136 0.0 0.0 0.00 0.00 0.00 82 1009.9
20260506140104 53 136 0.0 0.0 0.00 0.00 0.00 82 1009.9
20260506134323 53 136 0.0 0.0 0.00 0.00 0.00 81 1009.6
20260506133326 53 136 0.0 0.0 0.00 0.00 0.00 80 1009.6
20260506133004 53 136 0.0 0.0 0.00 0.00 0.00 78 1009.6
20260506132320 53 136 0.0 1.7 0.00 0.00 0.00 77 1009.6
20260506131606 52 136 0.0 0.0 0.00 0.00 0.00 80 1009.6
20260506131327 53 136 0.0 0.0 0.00 0.00 0.00 79 1009.3
20260506130304 53 136 0.0 0.0 0.00 0.00 0.00 79 1009.3
20260506125312 53 136 0.0 0.0 0.00 0.00 0.00 78 1009.2
20260506124502 52 136 0.0 0.0 0.00 0.00 0.00 79 1009.3
20260506124315 53 136 0.0 0.0 0.00 0.00 0.00 79 1009.2
20260506123245 53 134 0.0 0.9 0.00 0.00 0.00 79 1009.2
20260506123005 52 136 0.0 0.0 0.00 0.00 0.00 78 1009.2
20260506121503 52 136 0.0 0.0 0.00 0.00 0.00 78 1009.1
20260506121232 53 136 0.0 0.0 0.00 0.00 0.00 78 1009.0
20260506120239 53 136 0.0 1.7 0.00 0.00 0.00 77 1009.0
20260506120120 52 136 0.0 0.0 0.00 0.00 0.00 78 1009.1
20260506115212 53 136 0.0 0.0 0.00 0.00 0.00 78 1009.0
20260506114506 53 136 0.0 0.0 0.00 0.00 0.00 77 1009.0
20260506114230 53 136 0.0 0.9 0.00 0.00 0.00 78 1008.9
20260506113238 53 136 0.0 0.0 0.00 0.00 0.00 77 1008.9
20260506113006 52 136 0.0 0.0 0.00 0.00 0.00 78 1008.9
20260506112259 53 136 0.0 0.0 0.00 0.00 0.00 78 1008.9
20260506111505 53 136 0.0 0.0 0.00 0.00 0.00 77 1009.0
20260506111253 54 136 0.0 0.9 0.00 0.00 0.00 77 1008.7
20260506110305 54 136 0.0 0.0 0.00 0.00 0.00 77 1008.7
20260506110104 53 136 0.0 0.0 0.00 0.00 0.00 77 1008.8
20260506105306 54 136 0.0 0.0 0.00 0.00 0.00 77 1008.6
20260506104604 53 136 0.0 0.0 0.00 0.00 0.00 77 1008.7
20260506104242 54 136 0.0 0.0 0.00 0.00 0.00 77 1008.5
20260506103103 54 136 0.0 0.0 0.00 0.00 0.00 76 1008.6
20260506102113 54 136 0.0 0.0 0.00 0.00 0.00 77 1008.5
20260506101503 54 136 0.0 0.0 0.00 0.00 0.00 76 1008.5
20260506101049 55 136 0.0 0.0 0.00 0.00 0.00 76 1008.5
20260506100107 54 134 0.0 0.0 0.00 0.00 0.00 75 1008.6
20260506100015 55 136 0.0 0.9 0.00 0.00 0.00 75 1008.5
20260506093850 55 136 0.0 0.0 0.00 0.00 0.00 74 1008.6